Location: Camaret
(48.2753°N, 4.5961°W)
Time: 04:18:59
(UTC+00:00)

YAOGAN 6 - Pass Details

Date: 29 October 2020
Orbit: 464 x 504 km, 97.0° (Epoch: 01 December)

Event Time Altitude Azimuth Distance (km) Brightness Sun altitude
Rises 17:43:42 0° 177° (S) 2,572 6.4 -7.2°
Reaches altitude 10° 17:45:48 10° 182° (S) 1,699 5.5 -7.6°
Maximum altitude 17:49:23 54° 260° (W) 621 3.6 -8.2°
Drops below altitude 10° 17:53:03 10° 339° (NNW) 1,727 5.5 -8.8°
Sets 17:55:11 0° 344° (NNW) 2,618 6.4 -9.1°
